This is the latest recevied weather packets stored in our database for station/object SM0UQT-10. If no packets are shown the sender has not sent any weather packets the latest 10 day(s).
| Time | Temp. | Humidity | Pressure | Rain* | Wind** | Luminosity | Snow |
|---|---|---|---|---|---|---|---|
| 1777832125 | 24.44° C | 35% | 1014.4 hPa | - | - | - | - |
| 1777831230 | 24.44° C | 35% | 1014.4 hPa | - | - | - | - |
| 1777830925 | 24.44° C | 35% | 1014.4 hPa | - | - | - | - |
| 1777829725 | 23.89° C | 37% | 1014.5 hPa | - | - | - | - |
| 1777828719 | 23.89° C | 36% | 1014.6 hPa | - | - | - | - |
| 1777828525 | 23.89° C | 36% | 1014.6 hPa | - | - | - | - |
| 1777827418 | 23.89° C | 36% | 1014.6 hPa | - | - | - | - |
| 1777827324 | 23.89° C | 36% | 1014.6 hPa | - | - | - | - |
| 1777826123 | 23.89° C | 36% | 1014.8 hPa | - | - | - | - |
| 1777824960 | 23.89° C | 36% | 1014.9 hPa | - | - | - | - |
| 1777824923 | 23.89° C | 36% | 1014.9 hPa | - | - | - | - |
| 1777823770 | 24.44° C | 36% | 1015.1 hPa | - | - | - | - |
| 1777823723 | 24.44° C | 36% | 1015.1 hPa | - | - | - | - |
| 1777822523 | 21.11° C | 36% | 1015.1 hPa | - | - | - | - |
| 1777821592 | 24.44° C | 38% | 1015 hPa | - | - | - | - |
| 1777821322 | 24.44° C | 38% | 1015 hPa | - | - | - | - |
| 1777820223 | 24.44° C | 35% | 1015.4 hPa | - | - | - | - |
| 1777820121 | 24.44° C | 35% | 1015.4 hPa | - | - | - | - |
| 1777819094 | 23.89° C | 37% | 1015.5 hPa | - | - | - | - |
| 1777818921 | 23.89° C | 37% | 1015.5 hPa | - | - | - | - |
| 1777818857 | 26.67° C | 37% | 1015.5 hPa | - | - | - | - |
| 1777818712 | 26.67° C | 37% | 1015.5 hPa | - | - | - | - |
| 1777817562 | 27.22° C | 36% | 1015.6 hPa | - | - | - | - |
| 1777817512 | 27.22° C | 36% | 1015.6 hPa | - | - | - | - |
| 1777816420 | 27.22° C | 33% | 1015.8 hPa | - | - | - | - |
* Rain since midnight (hover to see other rain measurements)
** Current wind speed in m/s (hover to see current wind gust speed)